TimeAKST,TemperatureF,Dew PointF,Humidity,Sea Level PressureIn,VisibilityMPH,Wind Direction,Wind SpeedMPH,Gust SpeedMPH,PrecipitationIn,Events,Conditions,WindDirDegrees,DateUTC
12:53 AM,42.1,37.9,85,29.31,10.0,ENE,8.1,19.6,0.04,Rain,Light Rain,60,2012-11-29 09:53:00
1:53 AM,42.1,37.0,82,29.30,10.0,ENE,11.5,19.6,0.02,Rain,Light Rain,60,2012-11-29 10:53:00
3:53 AM,42.1,37.9,85,29.26,10.0,NE,9.2,19.6,0.00,Rain,Light Rain,50,2012-11-29 12:53:00
4:53 AM,43.0,37.9,82,29.23,10.0,NE,8.1,19.6,0.01,,Overcast,50,2012-11-29 13:53:00
5:53 AM,43.0,37.9,82,29.22,10.0,Variable,3.5,-,0.00,,Overcast,0,2012-11-29 14:53:00
6:53 AM,44.1,37.0,76,29.20,10.0,ENE,10.4,18.4,N/A,,Overcast,60,2012-11-29 15:53:00
7:53 AM,45.0,37.0,74,29.22,10.0,Variable,5.8,-,N/A,,Overcast,0,2012-11-29 16:53:00
8:53 AM,45.0,37.0,74,29.23,10.0,Variable,4.6,-,N/A,,Overcast,0,2012-11-29 17:53:00
9:53 AM,46.0,37.0,71,29.23,10.0,ENE,4.6,-,N/A,,Overcast,60,2012-11-29 18:53:00
10:20 AM,46.4,37.4,71,29.23,10.0,East,6.9,-,N/A,,Overcast,100,2012-11-29 19:20:00
10:38 AM,48.2,37.4,66,29.23,10.0,East,9.2,17.3,N/A,,Overcast,100,2012-11-29 19:38:00
10:53 AM,46.9,37.0,68,29.24,10.0,ESE,12.7,20.7,N/A,,Overcast,110,2012-11-29 19:53:00
11:53 AM,46.0,37.0,71,29.24,10.0,ESE,5.8,-,N/A,,Overcast,110,2012-11-29 20:53:00
12:46 PM,46.4,37.4,71,29.25,10.0,ESE,8.1,-,N/A,,Overcast,110,2012-11-29 21:46:00
12:53 PM,46.9,36.0,66,29.26,10.0,East,9.2,16.1,N/A,,Overcast,90,2012-11-29 21:53:00
1:24 PM,44.6,37.4,76,29.25,10.0,Variable,6.9,-,0.00,,Overcast,0,2012-11-29 22:24:00
1:35 PM,44.6,37.4,76,29.25,10.0,Variable,5.8,-,0.00,,Overcast,0,2012-11-29 22:35:00
1:53 PM,46.0,37.0,71,29.26,10.0,Variable,6.9,-,0.00,,Overcast,0,2012-11-29 22:53:00
2:53 PM,44.1,36.0,73,29.26,10.0,Variable,4.6,16.1,N/A,,Overcast,0,2012-11-29 23:53:00
3:53 PM,43.0,36.0,76,29.25,10.0,NE,5.8,-,N/A,,Mostly Cloudy,40,2012-11-30 00:53:00
4:53 PM,44.1,35.1,71,29.24,10.0,Variable,6.9,-,N/A,,Overcast,0,2012-11-30 01:53:00
5:53 PM,42.1,36.0,79,29.25,8.0,Variable,5.8,-,0.01,Rain,Light Rain,0,2012-11-30 02:53:00
6:53 PM,43.0,36.0,76,29.24,10.0,ENE,8.1,-,0.01,,Overcast,60,2012-11-30 03:53:00
7:53 PM,43.0,36.0,76,29.25,10.0,ENE,9.2,19.6,0.00,,Overcast,70,2012-11-30 04:53:00
8:53 PM,44.1,37.0,76,29.25,10.0,ESE,5.8,-,N/A,,Overcast,110,2012-11-30 05:53:00
9:53 PM,46.0,37.0,71,29.25,10.0,Variable,5.8,19.6,N/A,,Overcast,0,2012-11-30 06:53:00
10:53 PM,42.1,37.0,82,29.25,10.0,ENE,8.1,-,0.01,Rain,Light Rain,60,2012-11-30 07:53:00
11:53 PM,42.1,37.0,82,29.24,10.0,ENE,9.2,18.4,0.02,,Overcast,60,2012-11-30 08:53:00